COSMOS 2316 (GLONASS)

Satellite information

Favourite Embed

Satellite Type and Status

PAYLOADIN ORBIT

Key statistics

Satellite COSMOS 2316 (GLONASS) at a glance.

Uptime

11100

Days in orbit

Revolutions

≈ 2.1

Per day

Orbit

MEO

Medium Earth Orbit

Inclination

65.5

Latest

Satellite identification and parameters

Extended collection of information and parameters for COSMOS 2316 (GLONASS).

Object identification

Identified? True

Debris? False

Object name: COSMOS 2316 (GLONASS)

International designator: 1995-037A

Object number (NORAD): 23620

Object ID (CCSDS): 23620

Country: COMMONWEALTH OF INDEPENDENT STATES (CIS)

Current information (Y/N): Y

RCS size: LARGE

Orbital parameters

Period: 675.734 minutes

Inclination: 65.4663 deg

SMA: 25508.045 km

Apoapsis: 19162.609 km

Periapsis: 19097.211 km

RAAN: 208.9187 deg

Eccentricy: 0.0012819

Argument of periapsis: 153.2082 deg

Mean anomaly: 340.3259 deg

Mean motion: 2.13101742 rev/day

Mean motion (dot): 0.0000003 rev/day2

B* drag term: 0.0 1/REarth

Two-line elements (TLE)

Creation date: Dec. 10, 2025, 3:16 p.m.

Reference frame: TEME

Reference center: EARTH

Epoch: Dec. 10, 2025, 7:26 a.m. UTC

TLE line 0: 0 COSMOS 2316 (GLONASS)

TLE line 1: 1 23620U 95037A 25344.31010876 .00000030 00000-0 00000+0 0 9993

TLE line 2: 2 23620 65.4663 208.9187 0012819 153.2082 340.3259 2.13101742236415

Live tracking on map

Real-time ground track for satellite COSMOS 2316 (GLONASS).

In-orbit conjunctions

A list of the most updated potential collisions computed for object COSMOS 2316 (GLONASS).

Target Orbit TCA Probability of collision Miss distance Type
COSMOS 1712 (GLONASS) MEO 2024-10-24 01:18:16 TBA 4556.0 (m) PAYLOAD

Associated space launch

GLONASS navigation satellites

COSMOS 2316 (GLONASS) was lifted into orbit during the mission ‘Proton | Uragan 66 to 68’, on board a Proton space rocket.

The launch took place on July 24, 1995, 3:52 p.m. from 200/39 (200L).

For more information about the launch, click the button.

Launch to space Proton | Uragan 66 to 68
Proton | Uragan 66 to 68

Agency: N/A

Status: Launch Successful

Launch date: July 24, 1995, 3:52 p.m. UTC

Rocket: Proton

Launch pad: 200/39 (200L)

Location: Baikonur Cosmodrome, Republic of Kazakhstan

...

Latest news about this satellite

There are no fresh news available about this satellite. Check back as we update our databases every day.


Newsletter sign-up

Weekly statistics, charts and insights to help you stay on top of the space industry.